Lewistown, MT

9:03 AM MDT on August 23, 2017 (GMT -0600)
Lewistown Municipal

Weather History for KLWT - May, 2013

Change the Weather History Date:

Thursday, May 30, 2013

  Actual Average Record
Temperature  
Mean Temperature 46 °F 54 °F  
Max Temperature 49 °F 66 °F 92 °F (1936)
Min Temperature 43 °F 42 °F 30 °F (1977)
Degree Days  
Heating Degree Days 19 11  
Month to date heating degree days 415 455  
Since 1 July heating degree days 7828 7962  
Cooling Degree Days 0 0  
Month to date cooling degree days 3 0  
Year to date cooling degree days 3 0  
Moisture  
Dew Point 44 °F    
Average Humidity 93    
Maximum Humidity 100    
Minimum Humidity 86    
Precipitation  
Precipitation 1.25 in 0.12 in 1.25 in (2013)
Month to date precipitation 4.71 2.73  
Year to date precipitation 8.07 6.14  
Snow  
Snow 0.00 in - - ()
Snow Depth 0.00 in    
Sea Level Pressure  
Sea Level Pressure 29.78 in    
Wind  
Wind Speed 17 mph (WNW)    
Max Wind Speed 28 mph    
Max Gust Speed 36 mph    
Visibility 8 miles    
Events Rain    
T = Trace of Precipitation, MM = Missing Value Source: NWS Daily Summary

Daily Weather History Graph

Daily Weather History Graph

Search for Another Location

Airport or City:

Trip Planner

Search our weather history database for the weather conditions in past years. The results will help you decide how hot, cold, wet, or windy it might be!

Date:

Astronomy

May. 30, 2013 Rise Set
Actual Time 5:27 AM MDT 9:03 PM MDT
Civil Twilight 4:49 AM MDT 9:42 PM MDT
Nautical Twilight 3:57 AM MDT 10:33 PM MDT
Astronomical Twilight 2:48 AM MDT 11:44 PM MDT
Moon 12:52 AM MDT (5/30) 11:55 AM MDT (5/30)
Length of Visible Light 16h 53m
Length of Day
15h 36m
Waning Gibbous, 61% of the Moon is Illuminated
May 30
Waning Gibbous
May 31
Last Quarter
Jun 8
New
Jun 16
First Quarter
Jun 23
Full

Hourly Weather History & Observations

Time (MDT) Temp. Windchill Dew Point Humidity Pressure Visibility Wind Dir Wind Speed Gust Speed Precip Events Conditions
12:11 AM 48.2 °F - 48.2 °F 100% 29.70 in 7.0 mi WNW 4.6 mph - 0.01 in Rain Light Rain
12:20 AM 48.2 °F - 48.2 °F 100% 29.70 in 6.0 mi WNW 5.8 mph - 0.01 in Rain Light Rain
12:54 AM 48.9 °F - 48.0 °F 97% 29.67 in 6.0 mi WNW 8.1 mph - 0.03 in Rain Light Rain
1:54 AM 48.0 °F - 48.0 °F 100% 29.67 in 5.0 mi WNW 8.1 mph - 0.04 in Rain Light Rain
2:01 AM 48.2 °F - 48.2 °F 100% 29.69 in 5.0 mi WNW 9.2 mph - 0.01 in Rain Light Rain
2:31 AM 48.2 °F - 46.4 °F 93% 29.68 in 4.0 mi WNW 10.4 mph - 0.04 in Rain Rain
2:39 AM 48.2 °F - 46.4 °F 93% 29.68 in 5.0 mi WNW 10.4 mph - 0.05 in Rain Light Rain
2:54 AM 46.9 °F - 46.9 °F 100% 29.66 in 6.0 mi WNW 11.5 mph - 0.06 in Rain Light Rain
3:54 AM 46.9 °F - 46.9 °F 100% 29.65 in 4.0 mi WNW 10.4 mph - 0.07 in Rain Rain
4:54 AM 48.0 °F - 46.9 °F 96% 29.65 in 4.0 mi WNW 16.1 mph 20.7 mph 0.12 in Rain Rain
5:54 AM 46.9 °F - 46.9 °F 100% 29.65 in 10.0 mi WNW 17.3 mph 26.5 mph 0.06 in Rain Light Rain
6:22 AM 46.4 °F 40.1 °F 46.4 °F 100% 29.68 in 10.0 mi West 15.0 mph 25.3 mph 0.01 in Rain Light Rain
6:45 AM 46.4 °F 40.1 °F 44.6 °F 93% 29.69 in 10.0 mi West 15.0 mph 23.0 mph 0.01 in Rain Light Rain
6:54 AM 46.0 °F 39.6 °F 45.0 °F 96% 29.67 in 10.0 mi West 15.0 mph - 0.02 in Rain Light Rain
7:14 AM 46.4 °F 40.4 °F 46.4 °F 100% 29.69 in 6.0 mi West 13.8 mph - 0.01 in Rain Light Rain
7:54 AM 46.9 °F - 45.0 °F 93% 29.68 in 5.0 mi West 20.7 mph 27.6 mph 0.04 in Rain Light Rain
8:32 AM 46.4 °F 40.1 °F 44.6 °F 93% 29.70 in 4.0 mi WNW 15.0 mph 20.7 mph 0.04 in Rain Light Rain
8:54 AM 46.0 °F 39.3 °F 45.0 °F 96% 29.70 in 5.0 mi WNW 16.1 mph 26.5 mph 0.06 in Rain Light Rain
9:42 AM 46.4 °F 39.2 °F 44.6 °F 93% 29.73 in 4.0 mi WNW 18.4 mph 31.1 mph 0.05 in Rain Light Rain
9:51 AM 46.4 °F 38.7 °F 44.6 °F 93% 29.73 in 5.0 mi NW 20.7 mph 27.6 mph 0.05 in Rain Light Rain
9:54 AM 46.9 °F - 45.0 °F 93% 29.72 in 5.0 mi NW 17.3 mph 27.6 mph 0.05 in Rain Light Rain
10:04 AM 46.4 °F 40.1 °F 44.6 °F 93% 29.74 in 4.0 mi NW 15.0 mph 28.8 mph 0.02 in Rain Light Rain
10:38 AM 46.4 °F 40.1 °F 44.6 °F 93% 29.75 in 2.5 mi NW 15.0 mph 24.2 mph 0.08 in Rain Rain
10:54 AM 45.0 °F 37.4 °F 44.1 °F 97% 29.75 in 2.5 mi WNW 18.4 mph 27.6 mph 0.12 in Rain Rain
11:11 AM 46.4 °F 40.1 °F 44.6 °F 93% 29.76 in 4.0 mi WNW 15.0 mph 26.5 mph 0.03 in Rain Light Rain
11:54 AM 45.0 °F 37.9 °F 44.1 °F 97% 29.77 in 6.0 mi WNW 16.1 mph 25.3 mph 0.08 in Rain Light Rain
12:38 PM 46.4 °F 39.2 °F 42.8 °F 87% 29.78 in 9.0 mi West 18.4 mph 27.6 mph 0.01 in Rain Light Rain
12:54 PM 46.0 °F 38.5 °F 43.0 °F 89% 29.77 in 8.0 mi WNW 19.6 mph 28.8 mph 0.02 in Rain Light Rain
1:43 PM 46.4 °F 38.7 °F 42.8 °F 87% 29.80 in 10.0 mi WNW 20.7 mph 28.8 mph 0.03 in Rain Light Rain
1:54 PM 45.0 °F 36.0 °F 42.1 °F 90% 29.79 in 10.0 mi WNW 25.3 mph 35.7 mph 0.03 in Rain Light Rain
2:10 PM 44.6 °F 37.4 °F 42.8 °F 93% 29.81 in 10.0 mi WNW 16.1 mph 31.1 mph 0.01 in Rain Light Rain
2:33 PM 44.6 °F 38.1 °F 42.8 °F 93% 29.82 in 10.0 mi WNW 13.8 mph 24.2 mph 0.02 in Rain Light Rain
2:51 PM 44.6 °F 36.1 °F 42.8 °F 93% 29.82 in 10.0 mi WNW 21.9 mph 28.8 mph 0.03 in Rain Light Rain
2:54 PM 45.0 °F 37.1 °F 42.1 °F 90% 29.82 in 10.0 mi WNW 19.6 mph 28.8 mph 0.04 in Rain Light Rain
3:54 PM 46.0 °F 39.0 °F 44.1 °F 93% 29.82 in 10.0 mi WNW 17.3 mph 26.5 mph 0.04 in Rain Light Rain
4:27 PM 46.4 °F 39.8 °F 44.6 °F 93% 29.83 in 7.0 mi WNW 16.1 mph 26.5 mph 0.03 in Rain Light Rain
4:36 PM 46.4 °F 41.1 °F 44.6 °F 93% 29.84 in 10.0 mi NW 11.5 mph 25.3 mph 0.04 in Rain Light Rain
4:54 PM 46.0 °F 39.3 °F 44.1 °F 93% 29.83 in 9.0 mi NW 16.1 mph 23.0 mph 0.06 in Rain Light Rain
5:05 PM 44.6 °F 38.4 °F 42.8 °F 93% 29.84 in 9.0 mi NW 12.7 mph 26.5 mph 0.01 in Rain Light Rain
5:17 PM 44.6 °F 37.8 °F 42.8 °F 93% 29.84 in 9.0 mi NW 15.0 mph 23.0 mph 0.02 in Rain Light Rain
5:28 PM 44.6 °F 37.2 °F 44.6 °F 100% 29.85 in 9.0 mi WNW 17.3 mph 26.5 mph 0.03 in Rain Light Rain
5:31 PM 44.6 °F 36.9 °F 44.6 °F 100% 29.84 in 9.0 mi WNW 18.4 mph 26.5 mph 0.03 in Rain Light Rain
5:54 PM 46.0 °F 39.0 °F 43.0 °F 89% 29.84 in 10.0 mi WNW 17.3 mph 23.0 mph 0.05 in Rain Light Rain
6:47 PM 44.6 °F 36.9 °F 41.0 °F 87% 29.85 in 10.0 mi WNW 18.4 mph 29.9 mph 0.02 in Rain Light Rain
6:54 PM 45.0 °F 37.9 °F 42.1 °F 90% 29.86 in 10.0 mi WNW 16.1 mph 27.6 mph 0.02 in Rain Light Rain
7:14 PM 44.6 °F 36.9 °F 42.8 °F 93% 29.86 in 10.0 mi WNW 18.4 mph 26.5 mph 0.02 in Rain Light Rain
7:54 PM 45.0 °F 37.6 °F 41.0 °F 86% 29.86 in 10.0 mi WNW 17.3 mph 29.9 mph 0.03 in Rain Light Rain
8:15 PM 44.6 °F 37.8 °F 42.8 °F 93% 29.87 in 10.0 mi WNW 15.0 mph 21.9 mph 0.01 in Rain Light Rain
8:54 PM 44.1 °F 37.7 °F 42.1 °F 93% 29.87 in 8.0 mi WNW 12.7 mph 21.9 mph 0.05 in Rain Light Rain
9:33 PM 44.6 °F 38.8 °F 42.8 °F 93% 29.88 in 9.0 mi West 11.5 mph - 0.04 in Rain Light Rain
9:51 PM 44.6 °F 38.1 °F 42.8 °F 93% 29.87 in 7.0 mi WNW 13.8 mph - 0.06 in Rain Light Rain
9:54 PM 44.1 °F 37.1 °F 43.0 °F 96% 29.87 in 8.0 mi WNW 15.0 mph - 0.07 in Rain Light Rain
10:19 PM 44.6 °F 36.6 °F 42.8 °F 93% 29.87 in 9.0 mi WNW 19.6 mph - 0.02 in Rain Light Rain
10:28 PM 44.6 °F 36.1 °F 42.8 °F 93% 29.87 in 10.0 mi WNW 21.9 mph 29.9 mph 0.03 in Rain Light Rain
10:36 PM 44.6 °F 36.6 °F 42.8 °F 93% 29.88 in 8.0 mi WNW 19.6 mph 29.9 mph 0.04 in Rain Rain
10:54 PM 44.1 °F 34.8 °F 42.1 °F 93% 29.88 in 8.0 mi WNW 25.3 mph 34.5 mph 0.06 in Rain Light Rain
11:29 PM 44.6 °F 37.2 °F 42.8 °F 93% 29.87 in 10.0 mi WNW 17.3 mph 28.8 mph 0.01 in Rain Light Rain
11:54 PM 44.1 °F 35.9 °F 42.1 °F 93% 29.88 in 8.0 mi WNW 19.6 mph 26.5 mph 0.03 in Rain Light Rain